Location: Unspecified
(57.6483°N, 3.3184°W)
Time: 03:07:15
(UTC+00:00)

Envisat - Visible Passes

Search period start: 19 January 2026 00:00
Search period end: 29 January 2026 00:00
Orbit: 761 x 763 km, 98.4° (Epoch: 18 January)

Date Brightness Start Highest point End Pass type
(mag) Time Alt. Az. Time Alt. Az. Time Alt. Az.
19 Jan 5.4 04:23:12 10° N 04:23:47 13° N 04:23:47 13° N visible
19 Jan 5.2 06:03:49 10° NNW 06:03:55 10° NNW 06:03:55 10° NNW visible
20 Jan 5.6 03:45:13 10° NNE 03:45:37 12° NNE 03:45:37 12° NNE visible
20 Jan 5.2 05:25:03 10° N 05:25:45 12° NNW 05:25:45 12° NNW visible
21 Jan 5.9 03:07:22 10° NNE 03:07:27 10° NNE 03:07:27 10° NNE visible
21 Jan 5.2 04:46:46 10° N 04:47:35 14° N 04:47:35 14° N visible
22 Jan 5.4 04:08:42 10° N 04:09:25 14° N 04:09:25 14° N visible
22 Jan 5.2 05:48:56 10° NNW 05:49:33 12° NNW 05:49:33 12° NNW visible
23 Jan 5.6 03:30:47 10° NNE 03:31:15 13° NNE 03:31:15 13° NNE visible
23 Jan 5.1 05:10:26 10° N 05:11:23 14° N 05:11:23 14° N visible
24 Jan 5.9 02:53:00 10° NNE 02:53:06 11° NNE 02:53:06 11° NNE visible
24 Jan 5.2 04:32:15 10° N 04:33:14 15° N 04:33:14 15° N visible
24 Jan 5.2 06:13:20 10° NNW 06:13:22 10° NNW 06:13:22 10° NNW visible
25 Jan 5.4 03:54:15 10° NNE 03:55:04 15° N 03:55:04 15° N visible
25 Jan 5.1 05:34:12 10° N 05:35:12 13° NNW 05:35:12 13° NNW visible
26 Jan 5.7 03:16:22 10° NNE 03:16:55 13° NNE 03:16:55 13° NNE visible
26 Jan 5.1 04:55:52 10° N 04:57:02 15° N 04:57:02 15° N visible
27 Jan 6.0 02:38:39 10° NNE 02:38:46 11° NNE 02:38:46 11° NNE visible
27 Jan 5.2 04:17:45 10° N 04:18:53 16° N 04:18:53 16° N visible
27 Jan 5.1 05:58:12 10° NNW 05:59:02 12° NNW 05:59:02 12° NNW visible
28 Jan 5.4 03:39:47 10° NNE 03:40:44 16° NNE 03:40:44 16° NNE visible
28 Jan 5.0 05:19:34 10° N 05:20:52 15° NNW 05:20:52 15° NNW visible
